Home > Weather > Zarqa > Past weeks

Flag for Jordan Past Weather in Zarqa, Jordan — Yesterday and Last 2 Weeks

Now
75 °F

Clear.


Feels Like: 77 °F
Forecast: 67 / 92 °F
Wind: 5 mph from Northwest

Location: Amman Airport

Current Time: Jul 2, 2016 at 8:49:46 AM

Latest Report: Jul 2, 2016 at 8:00 AM


Visibility: 4 mi

Pressure: 29.86 "Hg (27.82 "Hg at 615m altitude)

Humidity: 29%

Dew Point: 41 °F

Location of ZarqaLocation

Past Weather in Zarqa — Graph

°F

Zarqa Temperature Yesterday

Maximum temperature yesterday: 88 °F (at 3:00 PM)
Minimum temperature yesterday: 66 °F (at 6:00 AM)
Average temperature yesterday: 77 °F

High & Low Weather Summary for the Past Weeks

 TemperatureHumidityPressure
High97 °F (Jun 19, 1:00 PM)83% (Jun 28, 6:00 AM)29.98 "Hg (Jun 28, 6:00 AM)
Low64 °F (Jun 17, 7:00 AM)11% (Jun 20, 1:00 PM)29.53 "Hg (Jun 24, 12:00 AM)
Average83 °F35%29.88 "Hg
* Reported Jun 17 7:00 AM — Jul 2 7:00 AM, Zarqa, Weather by CustomWeather, © 2016

Note: Actual official high and low records may vary slightly from our data, if they occured in-between our weather recording intervals... More about our weather records

Advertising

Zarqa Weather History for the Previous 24 Hours

Scroll right to see more
 ConditionsComfort  
Time TempWeatherWind HumidityBarometerVisibility
7:00 AM
Sat, Jul 2
73 °FHaze.5 mph33%29.89 "Hg3 mi
6:00 AM70 °FClear.5 mph38%29.86 "Hg4 mi
5:00 AM72 °FClear.3 mph36%29.86 "Hg4 mi
4:00 AM72 °FClear.3 mph38%29.89 "Hg5 mi
3:00 AM72 °FClear.8 mph41%29.89 "Hg5 mi
2:00 AM73 °FClear.3 mph38%29.89 "Hg5 mi
1:00 AM73 °FClear.10 mph36%29.89 "Hg5 mi
12:00 AM73 °FClear.3 mph41%29.92 "Hg5 mi
11:00 PM
Fri, Jul 1
73 °FClear.5 mph50%29.92 "Hg5 mi
10:00 PM73 °FClear.7 mph61%29.92 "Hg4 mi
9:00 PM75 °FHaze.9 mph54%29.89 "Hg3 mi
8:00 PM79 °FHaze.12 mph45%29.89 "Hg3 mi
7:00 PM81 °FHaze.7 mph42%29.92 "Hg3 mi
6:00 PM84 °FHaze.14 mph37%29.89 "Hg2 mi
5:00 PM86 °FHaze.15 mph38%29.89 "Hg3 mi
4:00 PM88 °FHaze.13 mph33%29.92 "Hg3 mi
3:00 PM88 °FHaze.15 mph29%29.92 "Hg3 mi
2:00 PM86 °FHaze.7 mph27%29.92 "Hg3 mi
1:00 PM84 °FClear.10 mph23%29.98 "Hg5 mi
12:00 PM82 °FClear.6 mph23%29.98 "Hg5 mi
11:00 AM81 °FClear.6 mph26%29.95 "Hg5 mi
10:00 AM79 °FClear.7 mph30%29.95 "Hg5 mi
9:00 AM77 °FHaze.9 mph32%29.95 "Hg3 mi
8:00 AM70 °FHaze.No wind64%29.92 "Hg3 mi
Weather by CustomWeather, © 2016

See weather overviewHow to use our weather pages